| time (UTC) | temp F | wind direction | speed knots | gust knots | rain 1hr in | rain 24hr in | rain mn in | humidity % | barometer mb |
| 20260510123014 | 58 | 355 | 0.9 | 0.0 | 0.00 | 0.00 | 0.00 | 61 | 1011.5 |
| 20260510121517 | 59 | 360 | 0.0 | 0.0 | 0.00 | 0.00 | 0.00 | 61 | 1011.5 |
| 20260510120011 | 60 | 323 | 0.0 | 0.0 | 0.00 | 0.00 | 0.00 | 63 | 1011.7 |
| 20260510114510 | 59 | 306 | 0.0 | 0.0 | 0.00 | 0.00 | 0.00 | 69 | 1011.8 |
| 20260510113010 | 57 | 347 | 0.0 | 0.0 | 0.00 | 0.00 | 0.00 | 75 | 1012.1 |
| 20260510111506 | 58 | 344 | 0.0 | 0.0 | 0.00 | 0.00 | 0.00 | 72 | 1012.1 |
| 20260510110007 | 59 | 336 | 0.9 | 0.0 | 0.00 | 0.00 | 0.00 | 69 | 1012.3 |
| 20260510104504 | 59 | 331 | 0.0 | 0.0 | 0.00 | 0.00 | 0.00 | 65 | 1012.3 |
| 20260510103001 | 59 | 324 | 0.0 | 0.0 | 0.00 | 0.00 | 0.00 | 68 | 1012.5 |
| 20260510101559 | 58 | 219 | 0.0 | 0.0 | 0.00 | 0.00 | 0.00 | 70 | 1012.6 |
| 20260510100112 | 56 | 213 | 0.0 | 0.0 | 0.00 | 0.00 | 0.00 | 73 | 1012.9 |
| 20260510094600 | 55 | 213 | 0.0 | 0.0 | 0.00 | 0.00 | 0.00 | 74 | 1013.1 |
| 20260510093054 | 54 | 211 | 0.0 | 0.0 | 0.00 | 0.00 | 0.00 | 74 | 1013.0 |
| 20260510091546 | 54 | 203 | 0.0 | 0.0 | 0.00 | 0.00 | 0.00 | 75 | 1013.3 |
| 20260510090050 | 54 | 202 | 0.0 | 0.0 | 0.00 | 0.00 | 0.00 | 76 | 1013.4 |
| 20260510084603 | 53 | 199 | 0.0 | 0.0 | 0.00 | 0.00 | 0.00 | 76 | 1013.4 |
| 20260510083041 | 53 | 199 | 0.0 | 0.0 | 0.00 | 0.00 | 0.00 | 76 | 1013.5 |
| 20260510081550 | 53 | 199 | 0.0 | 0.0 | 0.00 | 0.00 | 0.00 | 76 | 1013.4 |
| 20260510080045 | 53 | 199 | 0.0 | 0.0 | 0.00 | 0.00 | 0.00 | 77 | 1013.3 |
| 20260510074540 | 53 | 190 | 0.0 | 0.0 | 0.00 | 0.00 | 0.00 | 77 | 1013.4 |
| 20260510073039 | 52 | 173 | 0.0 | 0.0 | 0.00 | 0.00 | 0.00 | 80 | 1013.3 |
| 20260510071543 | 51 | 169 | 0.0 | 0.0 | 0.00 | 0.00 | 0.00 | 81 | 1013.6 |
| 20260510070039 | 51 | 169 | 0.0 | 0.0 | 0.00 | 0.00 | 0.00 | 81 | 1013.8 |
| 20260510064534 | 51 | 167 | 0.0 | 0.0 | 0.00 | 0.00 | 0.00 | 82 | 1013.7 |
| 20260510063030 | 50 | 167 | 0.0 | 0.0 | 0.00 | 0.00 | 0.00 | 84 | 1013.8 |
| 20260510061526 | 49 | 167 | 0.0 | 0.0 | 0.00 | 0.00 | 0.00 | 84 | 1013.8 |
| 20260510060024 | 48 | 167 | 0.0 | 0.0 | 0.00 | 0.00 | 0.00 | 84 | 1014.2 |
| 20260510054521 | 47 | 167 | 0.0 | 0.0 | 0.00 | 0.00 | 0.00 | 84 | 1014.2 |
| 20260510053024 | 47 | 167 | 0.0 | 0.0 | 0.00 | 0.00 | 0.00 | 84 | 1014.3 |
| 20260510051519 | 46 | 167 | 0.0 | 0.0 | 0.00 | 0.00 | 0.00 | 85 | 1014.3 |
| 20260510050016 | 46 | 165 | 0.0 | 0.0 | 0.00 | 0.00 | 0.00 | 86 | 1014.4 |
| 20260510044526 | 46 | 166 | 0.0 | 0.0 | 0.00 | 0.00 | 0.00 | 86 | 1014.6 |
| 20260510043013 | 46 | 166 | 0.0 | 0.0 | 0.00 | 0.00 | 0.00 | 86 | 1014.8 |
| 20260510041514 | 46 | 166 | 0.0 | 0.0 | 0.00 | 0.00 | 0.00 | 86 | 1014.8 |
| 20260510040011 | 45 | 166 | 0.0 | 0.0 | 0.00 | 0.00 | 0.00 | 87 | 1015.0 |
| 20260510034508 | 45 | 166 | 0.0 | 0.0 | 0.00 | 0.00 | 0.00 | 87 | 1015.1 |
| 20260510033007 | 44 | 166 | 0.0 | 0.0 | 0.00 | 0.00 | 0.00 | 88 | 1015.3 |
| 20260510031506 | 43 | 166 | 0.0 | 0.0 | 0.00 | 0.00 | 0.00 | 88 | 1015.3 |
| 20260510030004 | 42 | 165 | 0.0 | 0.0 | 0.00 | 0.00 | 0.00 | 88 | 1015.4 |
| 20260510024502 | 41 | 166 | 0.0 | 0.0 | 0.00 | 0.00 | 0.00 | 87 | 1015.6 |
| 20260510023100 | 41 | 166 | 0.0 | 0.0 | 0.00 | 0.00 | 0.00 | 86 | 1015.8 |
| 20260510021600 | 41 | 166 | 0.0 | 0.0 | 0.00 | 0.00 | 0.00 | 85 | 1016.1 |
| 20260510020058 | 42 | 166 | 0.0 | 0.0 | 0.00 | 0.00 | 0.00 | 85 | 1016.1 |
| 20260510014557 | 41 | 165 | 0.0 | 0.0 | 0.00 | 0.00 | 0.00 | 84 | 1016.2 |
| 20260510013054 | 41 | 166 | 0.0 | 0.0 | 0.00 | 0.00 | 0.00 | 83 | 1016.3 |
| 20260510011553 | 41 | 165 | 0.0 | 0.0 | 0.00 | 0.00 | 0.00 | 83 | 1016.5 |
| 20260510010053 | 41 | 165 | 0.0 | 0.0 | 0.00 | 0.00 | 0.00 | 83 | 1016.7 |
| 20260510004550 | 41 | 165 | 0.0 | 0.0 | 0.00 | 0.00 | 0.00 | 83 | 1016.9 |
| 20260510003046 | 41 | 165 | 0.0 | 0.0 | 0.00 | 0.00 | 0.00 | 83 | 1017.1 |
| 20260510001545 | 41 | 166 | 0.0 | 0.0 | 0.00 | 0.00 | 0.00 | 83 | 1017.5 |
| 20260510000100 | 41 | 165 | 0.0 | 0.0 | 0.00 | 0.00 | 0.00 | 83 | 1017.7 |
| 20260509234553 | 41 | 165 | 0.0 | 0.0 | 0.00 | 0.00 | 0.00 | 83 | 1017.7 |
| 20260509233045 | 41 | 166 | 0.0 | 0.0 | 0.00 | 0.00 | 0.00 | 82 | 1017.9 |
| 20260509231535 | 42 | 165 | 0.0 | 0.0 | 0.00 | 0.00 | 0.00 | 81 | 1018.1 |
| 20260509230036 | 42 | 166 | 0.0 | 0.0 | 0.00 | 0.00 | 0.00 | 80 | 1018.4 |
| 20260509224531 | 43 | 165 | 0.0 | 0.0 | 0.00 | 0.00 | 0.00 | 78 | 1018.5 |
| 20260509223027 | 44 | 166 | 0.0 | 0.0 | 0.00 | 0.00 | 0.00 | 77 | 1018.5 |
| 20260509221527 | 45 | 167 | 0.0 | 0.0 | 0.00 | 0.00 | 0.00 | 76 | 1018.6 |
| 20260509220026 | 45 | 167 | 0.0 | 0.0 | 0.00 | 0.00 | 0.00 | 77 | 1018.6 |
| 20260509214529 | 46 | 167 | 0.0 | 0.0 | 0.00 | 0.00 | 0.00 | 75 | 1018.7 |
| 20260509213022 | 46 | 167 | 0.0 | 0.0 | 0.00 | 0.00 | 0.00 | 74 | 1018.7 |
| 20260509211522 | 47 | 167 | 0.0 | 0.0 | 0.00 | 0.00 | 0.00 | 73 | 1018.8 |
| 20260509210026 | 47 | 167 | 0.0 | 0.0 | 0.00 | 0.00 | 0.00 | 73 | 1018.8 |
| 20260509204525 | 47 | 167 | 0.0 | 0.0 | 0.00 | 0.00 | 0.00 | 72 | 1019.0 |
| 20260509203020 | 47 | 167 | 0.0 | 0.0 | 0.00 | 0.00 | 0.00 | 71 | 1019.1 |
| 20260509201521 | 48 | 165 | 0.0 | 0.0 | 0.00 | 0.00 | 0.00 | 68 | 1019.0 |
| 20260509200020 | 48 | 165 | 0.0 | 0.0 | 0.00 | 0.00 | 0.00 | 66 | 1019.1 |
| 20260509194521 | 50 | 165 | 0.0 | 0.0 | 0.00 | 0.00 | 0.00 | 63 | 1019.0 |
| 20260509193025 | 51 | 165 | 0.0 | 0.0 | 0.00 | 0.00 | 0.00 | 60 | 1019.0 |
| 20260509191525 | 52 | 165 | 0.0 | 0.0 | 0.00 | 0.00 | 0.00 | 56 | 1018.8 |
| 20260509190018 | 53 | 165 | 0.0 | 0.0 | 0.00 | 0.00 | 0.00 | 52 | 1018.8 |
| 20260509184529 | 55 | 167 | 0.0 | 0.0 | 0.00 | 0.00 | 0.00 | 48 | 1018.5 |
| 20260509183017 | 56 | 167 | 0.0 | 0.0 | 0.00 | 0.00 | 0.00 | 45 | 1018.5 |
| 20260509181516 | 57 | 168 | 0.0 | 0.0 | 0.00 | 0.00 | 0.00 | 45 | 1018.6 |
| 20260509180017 | 58 | 171 | 0.0 | 0.0 | 0.00 | 0.00 | 0.00 | 45 | 1018.6 |
| 20260509174515 | 59 | 168 | 0.0 | 0.0 | 0.00 | 0.00 | 0.00 | 43 | 1018.6 |
| 20260509173014 | 59 | 163 | 0.0 | 0.0 | 0.00 | 0.00 | 0.00 | 41 | 1018.7 |
| 20260509171517 | 61 | 163 | 0.0 | 0.0 | 0.00 | 0.00 | 0.00 | 39 | 1018.7 |
| 20260509170015 | 64 | 202 | 0.0 | 0.0 | 0.00 | 0.00 | 0.00 | 38 | 1018.8 |
| 20260509164512 | 64 | 228 | 0.0 | 0.0 | 0.00 | 0.00 | 0.00 | 39 | 1018.9 |
| 20260509163013 | 64 | 232 | 1.7 | 0.0 | 0.00 | 0.00 | 0.00 | 37 | 1018.8 |
| 20260509161511 | 64 | 134 | 0.0 | 0.0 | 0.00 | 0.00 | 0.00 | 38 | 1018.9 |
| 20260509160009 | 63 | 30 | 0.0 | 0.0 | 0.00 | 0.00 | 0.00 | 42 | 1019.2 |
| 20260509154508 | 63 | 30 | 0.0 | 0.0 | 0.00 | 0.00 | 0.00 | 43 | 1019.4 |
| 20260509153005 | 63 | 29 | 0.0 | 0.0 | 0.00 | 0.00 | 0.00 | 42 | 1019.5 |
| 20260509151505 | 61 | 26 | 0.0 | 0.0 | 0.00 | 0.00 | 0.00 | 44 | 1019.5 |
| 20260509150002 | 61 | 360 | 0.0 | 0.0 | 0.00 | 0.00 | 0.00 | 42 | 1019.8 |
| 20260509144507 | 61 | 18 | 0.0 | 0.0 | 0.00 | 0.00 | 0.00 | 41 | 1019.8 |
| 20260509143129 | 60 | 44 | 0.0 | 0.0 | 0.00 | 0.00 | 0.00 | 43 | 1020.1 |
| 20260509141558 | 61 | 355 | 0.0 | 0.0 | 0.00 | 0.00 | 0.00 | 43 | 1020.1 |
| 20260509140106 | 60 | 9 | 0.0 | 0.0 | 0.00 | 0.00 | 0.00 | 44 | 1020.4 |
| 20260509134610 | 61 | 10 | 0.9 | 0.0 | 0.00 | 0.00 | 0.00 | 42 | 1020.6 |
| 20260509133054 | 61 | 38 | 0.0 | 0.0 | 0.00 | 0.00 | 0.00 | 43 | 1020.7 |
| 20260509131553 | 60 | 13 | 0.9 | 0.0 | 0.00 | 0.00 | 0.00 | 43 | 1021.0 |
| 20260509130059 | 60 | 11 | 0.9 | 0.0 | 0.00 | 0.00 | 0.00 | 43 | 1020.9 |
| 20260509124550 | 62 | 42 | 0.0 | 0.0 | 0.00 | 0.00 | 0.00 | 43 | 1021.1 |